AFL821 USSS-UWLL

Flight info

Callsign AFL821
Flight time 1h 21m
Altitude 36000
Route K0839F360 LUNAG6K LUNAG M864 AGNOK T796 ORTIM L158 GUBOM T789 AGUTO AGUTO1E
Aircraft A320/M-SDE3FGHIRWY/LB1

Departure

Time 2026-04-30 18:17
Airport Koltsovo Airport (USSS)

Arrival

Time 2026-04-30 19:39
Airport Ulyanovsk Baratayevka Airport (UWLL)
Time Latitude Longitude Altitude Speed Heading
2026-04-30 18:17 56.74567 60.56049 5481 ft 272 kts 268°
2026-04-30 18:17 56.74963 60.49162 7337 ft 276 kts 280°
2026-04-30 18:18 56.75359 60.45775 8244 ft 278 kts 281°
2026-04-30 18:18 56.75786 60.42294 9186 ft 279 kts 281°
2026-04-30 18:18 56.76201 60.38835 10101 ft 280 kts 280°
2026-04-30 18:18 56.76603 60.35351 10594 ft 295 kts 279°
2026-04-30 18:19 56.77025 60.31526 10857 ft 318 kts 279°
2026-04-30 18:19 56.77457 60.27472 11354 ft 330 kts 278°
2026-04-30 18:19 56.77891 60.23317 12038 ft 335 kts 278°
2026-04-30 18:19 56.78330 60.19097 12754 ft 339 kts 277°
2026-04-30 18:20 56.78772 60.14838 13061 ft 343 kts 277°
2026-04-30 18:20 56.79143 60.10601 13116 ft 342 kts 275°
2026-04-30 18:20 56.79433 60.06298 13119 ft 341 kts 273°
2026-04-30 18:20 56.79674 60.01958 13665 ft 345 kts 272°
2026-04-30 18:21 56.79905 59.97579 14355 ft 348 kts 272°
2026-04-30 18:21 56.80142 59.93165 15021 ft 351 kts 272°
2026-04-30 18:21 56.80391 59.88723 15696 ft 353 kts 272°
2026-04-30 18:21 56.80649 59.84247 16367 ft 356 kts 272°
2026-04-30 18:22 56.80915 59.79747 17026 ft 358 kts 272°
2026-04-30 18:22 56.81458 59.70652 18308 ft 363 kts 271°
2026-04-30 18:22 56.81727 59.66051 18872 ft 365 kts 271°
2026-04-30 18:23 56.81993 59.61429 19416 ft 367 kts 271°
2026-04-30 18:23 56.82255 59.56783 19936 ft 369 kts 270°
2026-04-30 18:23 56.82518 59.52095 20471 ft 372 kts 270°
2026-04-30 18:23 56.82783 59.47381 20986 ft 374 kts 270°
2026-04-30 18:24 56.83316 59.37871 22009 ft 379 kts 269°
2026-04-30 18:24 56.83580 59.33122 22492 ft 381 kts 269°
2026-04-30 18:24 56.83848 59.28272 22986 ft 384 kts 269°
2026-04-30 18:25 56.84116 59.23413 23469 ft 387 kts 269°
2026-04-30 18:25 56.84651 59.13556 24283 ft 391 kts 268°
2026-04-30 18:25 56.84915 59.08594 24689 ft 393 kts 268°
2026-04-30 18:26 56.85278 58.98625 25473 ft 393 kts 265°
2026-04-30 18:26 56.85364 58.93623 25851 ft 394 kts 264°
2026-04-30 18:26 56.85423 58.88670 26229 ft 395 kts 263°
2026-04-30 18:27 56.85544 58.78578 26969 ft 399 kts 263°
2026-04-30 18:27 56.85617 58.73480 27344 ft 401 kts 263°
2026-04-30 18:28 56.85781 58.63253 28072 ft 405 kts 263°
2026-04-30 18:28 56.85865 58.58093 28440 ft 406 kts 263°
2026-04-30 18:28 56.86026 58.47723 29139 ft 410 kts 263°
2026-04-30 18:29 56.86103 58.42510 29453 ft 411 kts 262°
2026-04-30 18:29 56.86326 58.26742 30377 ft 416 kts 262°
2026-04-30 18:30 56.86453 58.16128 30890 ft 419 kts 262°
2026-04-30 18:30 56.86579 58.05466 31538 ft 418 kts 262°
2026-04-30 18:31 56.86641 58.00165 31906 ft 417 kts 262°
2026-04-30 18:31 56.86754 57.89599 32637 ft 414 kts 262°
2026-04-30 18:32 56.86851 57.79106 33353 ft 411 kts 262°
2026-04-30 18:32 56.86898 57.73889 33694 ft 410 kts 262°
2026-04-30 18:32 56.86985 57.63528 34334 ft 409 kts 262°
2026-04-30 18:33 56.87024 57.58322 34595 ft 409 kts 262°
2026-04-30 18:33 56.87101 57.47907 35037 ft 411 kts 262°
2026-04-30 18:33 56.87135 57.42673 35251 ft 411 kts 263°
2026-04-30 18:34 56.87166 57.37428 35439 ft 413 kts 263°
2026-04-30 18:34 56.87221 57.26921 35836 ft 414 kts 263°
2026-04-30 18:34 56.87244 57.21648 36013 ft 415 kts 263°
2026-04-30 18:35 56.87267 57.16367 36122 ft 415 kts 263°
2026-04-30 18:35 56.87307 57.05814 36138 ft 415 kts 263°
2026-04-30 18:36 56.87352 56.89996 36138 ft 415 kts 263°
2026-04-30 18:37 56.87379 56.75392 36133 ft 415 kts 263°
2026-04-30 18:37 56.87380 56.67953 36136 ft 415 kts 263°
2026-04-30 18:38 56.87373 56.57400 36132 ft 415 kts 263°
2026-04-30 18:38 56.87358 56.46845 36132 ft 415 kts 263°
2026-04-30 18:39 56.87394 56.36284 36126 ft 416 kts 264°
2026-04-30 18:39 56.87529 56.25689 36126 ft 417 kts 264°
2026-04-30 18:40 56.87654 56.15094 36125 ft 417 kts 264°
2026-04-30 18:40 56.87749 56.04500 36123 ft 417 kts 264°
2026-04-30 18:41 56.87711 55.93928 36124 ft 411 kts 257°
2026-04-30 18:41 56.86291 55.84022 36120 ft 399 kts 242°
2026-04-30 18:42 56.84148 55.74728 36117 ft 400 kts 242°
2026-04-30 18:42 56.80930 55.60643 36111 ft 401 kts 242°
2026-04-30 18:45 56.68873 55.09130 36119 ft 403 kts 242°
2026-04-30 18:46 56.66649 54.99750 36126 ft 404 kts 242°
2026-04-30 18:46 56.64409 54.90381 36133 ft 404 kts 242°
2026-04-30 18:47 56.62543 54.82577 36129 ft 405 kts 242°
2026-04-30 18:47 56.60298 54.73198 36129 ft 405 kts 242°
2026-04-30 18:48 56.58046 54.63829 36138 ft 405 kts 242°
2026-04-30 18:48 56.55778 54.54483 36136 ft 405 kts 242°
2026-04-30 18:49 56.53495 54.45121 36137 ft 406 kts 242°
2026-04-30 18:49 56.51220 54.35834 36138 ft 406 kts 242°
2026-04-30 18:50 56.48929 54.26491 36136 ft 406 kts 242°
2026-04-30 18:50 56.46625 54.17142 36139 ft 407 kts 242°
2026-04-30 18:51 56.44306 54.07808 36140 ft 407 kts 241°
2026-04-30 18:51 56.41933 53.98542 36142 ft 406 kts 240°
2026-04-30 18:52 56.39423 53.89406 36139 ft 406 kts 239°
2026-04-30 18:52 56.36883 53.80297 36140 ft 406 kts 239°
2026-04-30 18:53 56.34358 53.71176 36138 ft 407 kts 239°
2026-04-30 18:53 56.31847 53.62085 36139 ft 407 kts 239°
2026-04-30 18:54 56.29323 53.52943 36140 ft 407 kts 239°
2026-04-30 18:54 56.26786 53.43834 36139 ft 407 kts 239°
2026-04-30 18:55 56.24237 53.34723 36146 ft 407 kts 239°
2026-04-30 18:55 56.20428 53.21121 36142 ft 408 kts 239°
2026-04-30 18:56 56.16575 53.07505 36136 ft 408 kts 239°
2026-04-30 18:57 56.12701 52.93892 36140 ft 408 kts 239°
2026-04-30 18:57 56.10111 52.84808 36135 ft 409 kts 239°
2026-04-30 18:58 56.06213 52.71209 36139 ft 409 kts 239°
2026-04-30 18:59 56.02310 52.57702 36141 ft 410 kts 238°
2026-04-30 19:00 55.97053 52.39598 36138 ft 410 kts 238°
2026-04-30 19:01 55.91768 52.21525 36137 ft 411 kts 238°
2026-04-30 19:02 55.87771 52.07990 36137 ft 411 kts 238°
2026-04-30 19:03 55.82440 51.90011 36139 ft 412 kts 238°
2026-04-30 19:04 55.77059 51.72025 36138 ft 413 kts 238°
2026-04-30 19:05 55.71634 51.54042 36131 ft 413 kts 238°
2026-04-30 19:06 55.66181 51.36086 36127 ft 414 kts 238°
2026-04-30 19:06 55.62071 51.22634 36130 ft 414 kts 238°
2026-04-30 19:07 55.57942 51.09208 36131 ft 414 kts 238°
2026-04-30 19:08 55.52432 50.91383 36131 ft 415 kts 238°
2026-04-30 19:09 55.48259 50.77988 36128 ft 415 kts 238°
2026-04-30 19:09 55.45471 50.69073 36132 ft 416 kts 238°
2026-04-30 19:10 55.39849 50.51239 36129 ft 416 kts 237°
2026-04-30 19:11 55.35643 50.37948 36128 ft 417 kts 237°
2026-04-30 19:12 55.32816 50.29070 36124 ft 417 kts 237°
2026-04-30 19:12 55.29968 50.20162 36125 ft 417 kts 237°
2026-04-30 19:13 55.27118 50.11264 34712 ft 419 kts 237°
2026-04-30 19:13 55.24230 50.02272 33064 ft 423 kts 237°
2026-04-30 19:13 55.22799 49.97836 32594 ft 416 kts 236°
2026-04-30 19:14 55.21384 49.93449 32042 ft 410 kts 236°
2026-04-30 19:14 55.20000 49.89169 31517 ft 405 kts 236°
2026-04-30 19:14 55.18618 49.84909 30993 ft 399 kts 235°
2026-04-30 19:14 55.17259 49.80718 30484 ft 394 kts 235°
2026-04-30 19:15 55.15915 49.76580 29926 ft 389 kts 235°
2026-04-30 19:15 55.13283 49.68516 28929 ft 375 kts 235°
2026-04-30 19:15 55.11997 49.64594 28456 ft 369 kts 235°
2026-04-30 19:16 55.10729 49.60729 27987 ft 363 kts 236°
2026-04-30 19:16 55.09482 49.56937 27534 ft 356 kts 236°
2026-04-30 19:16 55.07052 49.49548 26658 ft 345 kts 236°
2026-04-30 19:17 55.05862 49.45950 26240 ft 340 kts 236°
2026-04-30 19:17 55.03536 49.38924 25434 ft 330 kts 236°
2026-04-30 19:17 55.02411 49.35532 25060 ft 325 kts 237°
2026-04-30 19:18 55.00553 49.29929 24417 ft 317 kts 237°
2026-04-30 19:18 54.99086 49.25520 23938 ft 312 kts 237°
2026-04-30 19:18 54.98001 49.22259 23540 ft 309 kts 237°
2026-04-30 19:19 54.96923 49.19025 23148 ft 307 kts 237°
2026-04-30 19:19 54.95853 49.15821 22783 ft 306 kts 237°
2026-04-30 19:19 54.93723 49.09462 22041 ft 303 kts 237°
2026-04-30 19:20 54.92660 49.06303 21668 ft 301 kts 237°
2026-04-30 19:20 54.91605 49.03162 21298 ft 300 kts 237°
2026-04-30 19:20 54.89512 48.96938 20552 ft 297 kts 237°
2026-04-30 19:21 54.88483 48.93884 20177 ft 296 kts 237°
2026-04-30 19:21 54.86401 48.87718 19413 ft 293 kts 237°
2026-04-30 19:22 54.84354 48.81675 18678 ft 291 kts 237°
2026-04-30 19:22 54.80591 48.73635 17469 ft 285 kts 222°
2026-04-30 19:23 54.76275 48.66598 16339 ft 283 kts 222°
2026-04-30 19:24 54.73421 48.61940 15591 ft 282 kts 222°
2026-04-30 19:24 54.71991 48.59607 15220 ft 282 kts 222°
2026-04-30 19:24 54.69133 48.54950 14456 ft 283 kts 222°
2026-04-30 19:25 54.64820 48.47950 13304 ft 283 kts 222°
2026-04-30 19:26 54.61952 48.43315 12536 ft 281 kts 222°
2026-04-30 19:26 54.59103 48.38721 11769 ft 281 kts 223°
2026-04-30 19:26 54.57680 48.36426 11382 ft 280 kts 223°
2026-04-30 19:27 54.54757 48.31716 10244 ft 293 kts 223°
2026-04-30 19:27 54.51837 48.27030 9845 ft 278 kts 223°
2026-04-30 19:28 54.50458 48.24819 9667 ft 271 kts 223°
2026-04-30 19:28 54.47707 48.20411 8915 ft 267 kts 223°
2026-04-30 19:29 54.44976 48.16162 8182 ft 266 kts 216°
2026-04-30 19:29 54.43382 48.14573 7805 ft 265 kts 207°
2026-04-30 19:30 54.38467 48.10247 6702 ft 264 kts 207°
2026-04-30 19:30 54.35215 48.07385 5868 ft 263 kts 206°
2026-04-30 19:31 54.31953 48.04515 5007 ft 264 kts 206°
2026-04-30 19:31 54.30321 48.03083 4546 ft 264 kts 206°
2026-04-30 19:31 54.27067 48.00224 4027 ft 263 kts 206°
2026-04-30 19:32 54.25424 47.98790 4026 ft 265 kts 206°
2026-04-30 19:32 54.23778 47.97350 4023 ft 266 kts 206°
2026-04-30 19:32 54.22126 47.95904 3493 ft 265 kts 206°
2026-04-30 19:32 54.20477 47.94467 3062 ft 267 kts 206°
2026-04-30 19:33 54.18769 47.93275 2662 ft 265 kts 188°
2026-04-30 19:33 54.16987 47.93379 2300 ft 258 kts 161°
2026-04-30 19:33 54.15460 47.94805 2124 ft 245 kts 134°
2026-04-30 19:33 54.14469 47.96994 2117 ft 226 kts 118°
2026-04-30 19:34 54.13658 47.99191 2128 ft 213 kts 119°
2026-04-30 19:34 54.12885 48.01272 2121 ft 203 kts 119°
2026-04-30 19:34 54.12103 48.05470 2124 ft 184 kts 72°
2026-04-30 19:35 54.12477 48.06774 2127 ft 182 kts 50°
2026-04-30 19:35 54.13470 48.08108 2123 ft 182 kts 33°
2026-04-30 19:35 54.14555 48.09243 2130 ft 183 kts 32°
2026-04-30 19:35 54.15618 48.10366 2146 ft 182 kts 32°
2026-04-30 19:36 54.16653 48.11466 2150 ft 164 kts 33°
2026-04-30 19:36 54.17560 48.12433 2127 ft 148 kts 33°
2026-04-30 19:36 54.19261 48.14250 2023 ft 142 kts 33°
2026-04-30 19:37 54.20094 48.15141 1867 ft 142 kts 33°
2026-04-30 19:37 54.20923 48.16027 1684 ft 139 kts 33°
2026-04-30 19:37 54.21747 48.16907 1496 ft 140 kts 33°
2026-04-30 19:37 54.22573 48.17793 1286 ft 140 kts 32°
2026-04-30 19:38 54.23405 48.18683 1087 ft 141 kts 32°
2026-04-30 19:38 54.24238 48.19576 900 ft 142 kts 31°
2026-04-30 19:38 54.25073 48.20472 703 ft 142 kts 31°
2026-04-30 19:38 54.25913 48.21372 516 ft 142 kts 31°
2026-04-30 19:39 54.26703 48.22203 435 ft 112 kts 32°
2026-04-30 19:39 54.27220 48.22745 418 ft 63 kts 34°
2026-04-30 19:39 54.27472 48.23030 414 ft 36 kts 33°
2026-04-30 19:39 54.27636 48.23331 411 ft 35 kts 73°
2026-04-30 19:40 54.27679 48.23593 402 ft 8 kts 75°
2026-04-30 19:40 54.27689 48.23654 401 ft 1 kts 75°
2026-04-30 19:40 54.27684 48.23686 400 ft 11 kts 104°
2026-04-30 19:40 54.27649 48.23825 399 ft 12 kts 121°
2026-04-30 19:41 54.27657 48.23933 399 ft 9 kts 36°
2026-04-30 19:41 54.27679 48.23955 398 ft 3 kts 30°
2026-04-30 19:41 54.27687 48.23962 396 ft 0 kts 30°